Regional Weather Roundup
Issued by NWS

Home | Current Version | Previous Version | Text Only | Print | Product List | Glossary On
Versions: 1 2 3 4 5 6 7 8 9 10 11 12 13 14 15 16 17 18 19 20 21 22 23 24 25 26 27 28 29 30 31 32 33 34 35 36 37 38 39 40 41 42 43 44 45 46 47 48 49 50
566
ASUS45 KREV 301310
RWRNV
NEVADA REGIONAL WEATHER ROUNDUP
NATIONAL WEATHER SERVICE RENO NV
600 AM PDT SAT JUL 30 2016

NOTE: "FAIR" INDICATES FEW OR NO CLOUDS BELOW 12,000 FEET WITH NO
SIGNIFICANT WEATHER AND/OR OBSTRUCTIONS TO VISIBILITY.

NVZ001-003-004-301400-
WESTERN NEVADA

CITY           SKY/WX    TMP DP  RH WIND       PRES   REMARKS
RENO           PTCLDY    67  45  45 S6        30.02R
CARSON CITY    FAIR      63  41  45 CALM      30.06R
PYRAMID LAKE     N/A     77 N/A N/A S2          N/A
FALLON         CLEAR     70  43  37 SE9       29.95R
LOVELOCK       CLEAR     66  44  45 E6        29.93R
HAWTHORNE      CLEAR     70  43  37 S3        30.00S
$$

NVZ002-CAZ072-073-301400-
NORTHERN AND CENTRAL SIERRA

CITY           SKY/WX    TMP DP  RH WIND       PRES   REMARKS
S. LAKE TAHOE  CLEAR     49  41  74 S3        30.17S
TRUCKEE        CLEAR     46  37  71 CALM      30.16S
SQUAW VLY 8000 NOT AVBL
SUSANVILLE     CLEAR     61  45  55 CALM      30.00S
MAMMOTH LAKES    N/A     48  41  75 CALM      30.25R
BRIDGEPORT       N/A     50  36  58 CALM      30.21R
$$

NVZ030-031-036-301400-
NORTHERN NEVADA

CITY           SKY/WX    TMP DP  RH WIND       PRES   REMARKS
ELKO           CLOUDY    73  43  33 E3        30.01R
WINNEMUCCA     CLEAR     73  42  32 CALM      29.94R
WENDOVER       PTCLDY    72  45  37 CALM      29.95R
$$

NVZ035-037-301400-
CENTRAL NEVADA

CITY           SKY/WX    TMP DP  RH WIND       PRES   REMARKS
ELY            PTCLDY    50  42  74 S12       30.14R
EUREKA           N/A     63  41  44 S7        30.10R
$$

NVZ013-014-301400-
SOUTH CENTRAL NEVADA

CITY           SKY/WX    TMP DP  RH WIND       PRES   REMARKS
TONOPAH        MOCLDY    67  47  48 N5        30.09R
$$

NVZ017-020-022-301400-
SOUTHERN NEVADA

CITY           SKY/WX    TMP DP  RH WIND       PRES   REMARKS
LAS VEGAS      MOCLDY    86  58  38 S12G20    29.85R
N. LAS VEGAS   CLOUDY    86  59  39 SE9       29.88R
NELLIS AFB     PTCLDY    87  60  39 SE21G31   29.86R
HENDERSON      CLOUDY    83  60  45 SE20G26   29.92
MERCURY        CLEAR     79  45  29 NW3       29.91R
$$




USA.gov is the U.S. government's official web portal to all federal, state and local government web resources and services.